Location: Unspecified
(50.1700°N, 6.8600°E)
Time: 06:35:40
(UTC+00:00)

Cosmos 2180 Rocket - Pass Details

Date: 24 January 2019
Orbit: 953 x 1006 km, 82.9° (Epoch: 16 February)

Event Time Altitude Azimuth Distance (km) Brightness Sun altitude
Rises 05:26:05 0° 349° (N) 3,703 7.3 -17.6°
Reaches altitude 10° 05:28:37 10° 350° (N) 2,743 6.7 -17.2°
Maximum altitude 05:34:55 87° 263° (W) 979 4.4 -16.2°
Drops below altitude 10° 05:41:05 10° 174° (S) 2,690 7.0 -15.2°
Sets 05:43:33 0° 174° (S) 3,627 7.7 -14.8°
